{"data":{"norad_id":62308,"intl_designator":"2024-239H","name":"STARLINK-32706","alt_names":[],"object_type":"PAYLOAD","status":"ACTIVE","operator":null,"country":"US","launch_date":"2024-12-13","launch_site_code":"AFWTR","launch_vehicle":null,"mission":null,"orbit_class":"UNKNOWN","rcs_meters":null,"size_class":null,"mass_kg":null,"dimensions":null,"purposes":["comms"],"wikipedia_slug":null,"has_3d_model":false,"image_url":null,"decayed_at":null,"tle_current":{"epoch":"2026-09-21T14:38:58.155648Z","epoch_age_seconds":81709,"freshness":"FRESH","line1":"1 62308U 24239H   26264.61039532  .00012352  00000+0  37597-3 0  9994","line2":"2 62308  53.1610   0.8113 0001188  87.2028 272.9110 15.34411996 99424","mean_motion":15.34411996,"eccentricity":0.0001188,"inclination_deg":53.161,"raan_deg":0.8113,"arg_perigee_deg":87.2028,"mean_anomaly_deg":272.911,"bstar":0.00037597,"rev_number":9942,"period_min":93.847024381579,"perigee_km":461.85489821456,"apogee_km":463.48027338415,"semimajor_km":6840.8045857994,"source":"CELESTRAK","updated_at":"2026-09-22T09:00:49.572052Z"}}}